Freeport, IL

4:26 AM CDT on April 27, 2017 (GMT -0500)
Albertus

Weather History for KFEP - January, 2014

Change the Weather History Date:

Thursday, January 30, 2014

  Actual Average Record
Temperature  
Mean Temperature 26 °F -  
Max Temperature 33 °F 27 °F 45 °F (1988)
Min Temperature 18 °F 12 °F -11 °F (1978)
Degree Days  
Heating Degree Days 40    
Moisture  
Dew Point 19 °F    
Average Humidity 76    
Maximum Humidity 93    
Minimum Humidity 63    
Precipitation  
Precipitation 0.00 in - - ()
Sea Level Pressure  
Sea Level Pressure 29.74 in    
Wind  
Wind Speed 20 mph (SW)    
Max Wind Speed 26 mph    
Max Gust Speed 37 mph    
Visibility 9 miles    
Events Snow    
Averages and records for this station are not official NWS values.
T = Trace of Precipitation, MM = Missing Value Source: NWS Daily Summary

Daily Weather History Graph

Daily Weather History Graph

Search for Another Location

Airport or City:

Trip Planner

Search our weather history database for the weather conditions in past years. The results will help you decide how hot, cold, wet, or windy it might be!

Date:

Astronomy

Jan. 30, 2014 Rise Set
Actual Time 7:13 AM CST 5:10 PM CST
Civil Twilight 6:43 AM CST 5:40 PM CST
Nautical Twilight 6:10 AM CST 6:13 PM CST
Astronomical Twilight 5:37 AM CST 6:46 PM CST
Moon 6:38 AM CST (1/30) 5:23 PM CST (1/30)
Length of Visible Light 10h 56m
Length of Day
9h 56m
Waning Crescent, 0% of the Moon is Illuminated
Jan 30
Waning Crescent
Jan 30
New
Feb 6
First Quarter
Feb 14
Full
Feb 22
Last Quarter

Hourly Weather History & Observations

Time (CST) Temp. Windchill Dew Point Humidity Pressure Visibility Wind Dir Wind Speed Gust Speed Precip Events Conditions
12:15 AM 21.2 °F 6.0 °F 10.2 °F 63% 29.87 in 10.0 mi South 19.6 mph - N/A   Clear
12:35 AM 21.2 °F 6.0 °F 10.2 °F 63% 29.86 in 10.0 mi South 19.6 mph - N/A   Clear
12:55 AM 21.2 °F 6.4 °F 10.4 °F 63% 29.86 in 10.0 mi South 18.4 mph - N/A   Clear
1:15 AM 21.2 °F 6.4 °F 10.6 °F 64% 29.85 in 10.0 mi South 18.4 mph - N/A   Clear
1:35 AM 21.2 °F 6.0 °F 10.6 °F 64% 29.84 in 10.0 mi South 19.6 mph 26.5 mph N/A   Clear
1:55 AM 21.2 °F 5.6 °F 11.1 °F 65% 29.83 in 10.0 mi South 20.7 mph - N/A   Clear
2:15 AM 21.2 °F 5.6 °F 11.3 °F 66% 29.83 in 10.0 mi South 20.7 mph 24.2 mph N/A   Clear
2:35 AM 21.2 °F 5.6 °F 11.5 °F 66% 29.82 in 10.0 mi South 20.7 mph 27.6 mph N/A   Clear
2:55 AM 21.2 °F 6.8 °F 11.7 °F 67% 29.82 in 10.0 mi South 17.3 mph 25.3 mph N/A   Clear
3:15 AM 22.3 °F 7.0 °F 12.2 °F 65% 29.80 in 10.0 mi South 20.7 mph - N/A   Clear
3:35 AM 23.7 °F 8.2 °F 13.1 °F 64% 29.78 in 10.0 mi South 23.0 mph 27.6 mph N/A   Clear
3:55 AM 23.7 °F 8.9 °F 12.9 °F 63% 29.78 in 10.0 mi South 20.7 mph 26.5 mph N/A   Clear
4:15 AM 23.7 °F 8.2 °F 12.7 °F 63% 29.77 in 10.0 mi South 23.0 mph 31.1 mph N/A   Clear
4:35 AM 24.1 °F 8.7 °F 13.1 °F 63% 29.77 in 10.0 mi South 23.0 mph 28.8 mph N/A   Clear
4:55 AM 23.9 °F 8.4 °F 13.1 °F 63% 29.75 in 10.0 mi South 23.0 mph 28.8 mph N/A   Clear
5:15 AM 24.4 °F 9.5 °F 13.6 °F 64% 29.75 in 10.0 mi South 21.9 mph 29.9 mph N/A   Clear
5:35 AM 24.8 °F 9.3 °F 13.8 °F 63% 29.73 in 10.0 mi South 24.2 mph 29.9 mph N/A   Clear
5:55 AM 24.6 °F 9.1 °F 14.4 °F 65% 29.73 in 10.0 mi South 24.2 mph 28.8 mph N/A   Clear
6:15 AM 24.4 °F 8.8 °F 14.4 °F 66% 29.72 in 10.0 mi South 24.2 mph 28.8 mph N/A   Clear
6:35 AM 24.8 °F 10.3 °F 14.5 °F 65% 29.73 in 10.0 mi South 20.7 mph 28.8 mph N/A   Clear
6:55 AM 24.8 °F 10.0 °F 15.3 °F 67% 29.71 in 10.0 mi South 21.9 mph 27.6 mph N/A   Scattered Clouds
7:15 AM 24.8 °F 9.3 °F 15.8 °F 69% 29.70 in 10.0 mi South 24.2 mph 32.2 mph N/A   Overcast
7:35 AM 24.8 °F 8.7 °F 15.8 °F 69% 29.70 in 10.0 mi South 26.5 mph 29.9 mph N/A   Mostly Cloudy
8:15 AM 24.8 °F 8.7 °F 16.2 °F 70% 29.68 in 10.0 mi South 26.5 mph 31.1 mph N/A   Mostly Cloudy
8:35 AM 25.3 °F 10.7 °F 16.5 °F 69% 29.69 in 10.0 mi South 21.9 mph 32.2 mph N/A   Mostly Cloudy
8:55 AM 25.5 °F 10.0 °F 16.7 °F 69% 29.68 in 10.0 mi South 25.3 mph 31.1 mph N/A   Mostly Cloudy
9:15 AM 25.7 °F 9.9 °F 17.6 °F 71% 29.64 in 5.0 mi South 26.5 mph 32.2 mph N/A   Haze
9:35 AM 25.9 °F 10.1 °F 18.3 °F 73% 29.66 in 3.0 mi South 26.5 mph 36.8 mph N/A   Haze
9:55 AM 26.2 °F 10.9 °F 18.0 °F 71% 29.66 in 5.0 mi South 25.3 mph 32.2 mph N/A   Haze
10:15 AM 26.2 °F 11.2 °F 18.3 °F 72% 29.64 in 4.0 mi South 24.2 mph 33.4 mph N/A   Haze
10:35 AM 26.2 °F 11.5 °F 17.8 °F 70% 29.65 in 7.0 mi South 23.0 mph 29.9 mph N/A   Clear
10:55 AM 26.8 °F 13.3 °F 17.4 °F 68% 29.66 in 10.0 mi South 19.6 mph 26.5 mph N/A   Clear
11:15 AM 27.0 °F 14.3 °F 17.1 °F 66% 29.65 in 10.0 mi South 17.3 mph 23.0 mph N/A   Scattered Clouds
11:35 AM 27.5 °F 14.6 °F 17.4 °F 66% 29.64 in 10.0 mi South 18.4 mph - N/A   Scattered Clouds
11:55 AM 27.3 °F 12.1 °F 20.3 °F 75% 29.64 in 2.0 mi SSW 26.5 mph 34.5 mph N/A Snow Light Snow
12:15 PM 26.6 °F 11.7 °F 22.8 °F 86% 29.63 in 0.5 mi SW 24.2 mph 31.1 mph N/A Snow Light Snow
12:35 PM 26.6 °F 12.4 °F 23.9 °F 90% 29.62 in 0.5 mi SW 21.9 mph 34.5 mph N/A Snow Light Snow
12:55 PM 27.1 °F 13.4 °F 24.3 °F 89% 29.61 in 2.0 mi SSW 20.7 mph 26.5 mph N/A   Overcast
1:15 PM 27.5 °F 13.9 °F 24.6 °F 89% 29.61 in 2.5 mi SSW 20.7 mph 26.5 mph N/A   Overcast
1:35 PM 27.9 °F 15.1 °F 25.0 °F 89% 29.60 in 4.0 mi SSW 18.4 mph - N/A   Overcast
1:55 PM 28.8 °F 16.6 °F 25.7 °F 88% 29.61 in 7.0 mi SSW 17.3 mph 23.0 mph N/A   Overcast
2:15 PM 28.8 °F 15.9 °F 25.7 °F 88% 29.61 in 7.0 mi SSW 19.6 mph 23.0 mph N/A   Overcast
2:17 PM 28.4 °F 16.2 °F 26.6 °F 93% 29.61 in 7.0 mi SSW 17.3 mph 23.0 mph N/A   Overcast
2:55 PM 30.7 °F 18.8 °F 27.3 °F 87% 29.63 in 10.0 mi SW 18.4 mph 24.2 mph N/A   Overcast
3:15 PM 31.5 °F 19.4 °F 27.9 °F 87% 29.64 in 10.0 mi SSW 19.6 mph 24.2 mph N/A   Overcast
3:35 PM 31.5 °F 19.8 °F 27.9 °F 87% 29.64 in 7.0 mi SW 18.4 mph - N/A   Overcast
3:55 PM 31.5 °F 20.1 °F 27.9 °F 87% 29.65 in 10.0 mi SW 17.3 mph - N/A   Overcast
4:15 PM 31.5 °F 20.9 °F 27.9 °F 87% 29.66 in 10.0 mi SW 15.0 mph 24.2 mph N/A   Overcast
4:35 PM 31.5 °F 19.8 °F 27.9 °F 87% 29.67 in 10.0 mi SW 18.4 mph - N/A   Overcast
4:55 PM 31.5 °F 20.9 °F 27.7 °F 86% 29.68 in 10.0 mi SW 15.0 mph - N/A   Overcast
5:15 PM 32.9 °F 22.8 °F 29.3 °F 87% 29.69 in 10.0 mi SW 15.0 mph 18.4 mph N/A   Overcast
5:35 PM 33.8 °F 24.3 °F 30.0 °F 86% 29.69 in 10.0 mi SW 13.8 mph - N/A   Overcast
5:55 PM 33.8 °F 27.7 °F 29.8 °F 85% 29.70 in 10.0 mi SW 6.9 mph - N/A   Overcast
6:15 PM 33.8 °F 25.8 °F 29.8 °F 85% 29.72 in 10.0 mi SW 10.4 mph - N/A   Overcast
6:35 PM 33.8 °F 23.5 °F 28.9 °F 82% 29.74 in 10.0 mi West 16.1 mph 19.6 mph N/A   Overcast
6:55 PM 33.3 °F 22.1 °F 28.9 °F 84% 29.76 in 10.0 mi West 18.4 mph 24.2 mph N/A   Overcast
7:15 PM 28.8 °F 19.0 °F 23.7 °F 81% 29.77 in 10.0 mi West 11.5 mph - N/A   Mostly Cloudy
7:35 PM 27.1 °F 15.9 °F 22.3 °F 82% 29.78 in 10.0 mi West 13.8 mph - N/A   Scattered Clouds
7:55 PM 25.5 °F 13.3 °F 20.7 °F 82% 29.79 in 10.0 mi WNW 15.0 mph - N/A   Scattered Clouds
8:15 PM 23.7 °F 10.5 °F 19.4 °F 84% 29.82 in 10.0 mi West 16.1 mph - N/A   Clear
8:35 PM 23.7 °F 11.0 °F 19.4 °F 84% 29.83 in 10.0 mi West 15.0 mph - N/A   Clear
8:55 PM 22.3 °F 8.7 °F 17.8 °F 83% 29.85 in 10.0 mi WNW 16.1 mph 20.7 mph N/A   Clear
9:15 PM 21.9 °F 9.2 °F 17.1 °F 82% 29.86 in 10.0 mi WNW 13.8 mph 21.9 mph N/A   Clear
9:35 PM 21.2 °F 9.5 °F 16.3 °F 82% 29.88 in 10.0 mi West 11.5 mph 18.4 mph N/A   Clear
9:55 PM 19.9 °F 7.9 °F 15.1 °F 81% 29.90 in 10.0 mi West 11.5 mph 16.1 mph N/A   Clear
10:15 PM 19.8 °F 7.7 °F 14.7 °F 81% 29.91 in 10.0 mi WNW 11.5 mph 19.6 mph N/A   Clear
10:35 PM 19.2 °F 5.8 °F 13.8 °F 80% 29.92 in 10.0 mi WNW 13.8 mph 19.6 mph N/A   Clear
10:55 PM 18.5 °F 6.1 °F 13.1 °F 79% 29.92 in 10.0 mi WNW 11.5 mph - N/A   Clear
11:15 PM 18.5 °F 6.1 °F 12.9 °F 79% 29.93 in 10.0 mi NW 11.5 mph 17.3 mph N/A   Clear
11:35 PM 18.5 °F 4.3 °F 12.7 °F 78% 29.93 in 10.0 mi NW 15.0 mph 19.6 mph N/A   Clear
11:55 PM 18.5 °F 4.9 °F 12.0 °F 76% 29.95 in 10.0 mi NW 13.8 mph - N/A   Clear